GW5459 Weather Reports


time (UTC)temp
F
wind
direction
speed
knots
gust
knots
rain 1hr
in
rain 24hr
in
rain mn
in
humidity
%
barometer
mb
20260510204203 61 302 1.7 1.7 0.00 0.00 0.00 28 1010.0
20260510203703 60 312 1.7 1.7 0.00 0.00 0.00 27 1010.0
20260510203203 60 314 0.9 0.9 0.00 0.00 0.00 29 1010.0
20260510202703 60 239 2.6 2.6 0.00 0.00 0.00 27 1010.0
20260510202202 62 19 1.7 1.7 0.00 0.00 0.00 26 1010.0
20260510201702 62 200 1.7 1.7 0.00 0.00 0.00 28 1010.0
20260510201202 62 330 1.7 1.7 0.00 0.00 0.00 26 1010.0
20260510200702 64 318 1.7 1.7 0.00 0.00 0.00 25 1010.0
20260510200202 64 330 2.6 2.6 0.00 0.00 0.00 27 1010.0
20260510195702 65 232 3.5 3.5 0.00 0.00 0.00 25 1010.0
20260510195203 64 226 1.7 1.7 0.00 0.00 0.00 26 1010.0
20260510194703 62 242 1.7 1.7 0.00 0.00 0.00 29 1010.0
20260510194204 61 48 1.7 1.7 0.00 0.00 0.00 28 1011.0
20260510193702 62 342 2.6 2.6 0.00 0.00 0.00 26 1011.0
20260510193203 62 244 1.7 1.7 0.00 0.00 0.00 26 1011.0
20260510192703 60 294 1.7 1.7 0.00 0.00 0.00 27 1011.0
20260510192202 59 348 0.9 0.9 0.00 0.00 0.00 27 1011.0
20260510191703 59 245 2.6 2.6 0.00 0.00 0.00 28 1011.0
20260510191202 60 324 1.7 1.7 0.00 0.00 0.00 27 1011.0
20260510190704 61 249 2.6 2.6 0.00 0.00 0.00 27 1011.0
20260510190202 61 269 2.6 2.6 0.00 0.00 0.00 26 1011.0
20260510185702 62 271 1.7 1.7 0.00 0.00 0.00 28 1011.0
20260510185203 62 324 1.7 1.7 0.00 0.00 0.00 26 1011.0
20260510184702 61 285 5.2 6.1 0.00 0.00 0.00 28 1011.0
20260510184202 61 353 1.7 1.7 0.00 0.00 0.00 24 1010.0
20260510183703 60 237 1.7 1.7 0.00 0.00 0.00 24 1010.0
20260510183202 60 252 1.7 1.7 0.00 0.00 0.00 27 1010.0
20260510182702 60 6 1.7 1.7 0.00 0.00 0.00 27 1011.0
20260510182204 59 236 1.7 1.7 0.00 0.00 0.00 29 1011.0
20260510181702 61 216 1.7 1.7 0.00 0.00 0.00 28 1011.0
20260510181203 61 252 6.1 6.1 0.00 0.00 0.00 27 1010.0
20260510180702 61 209 1.7 1.7 0.00 0.00 0.00 26 1010.0
20260510180202 61 226 3.5 4.3 0.00 0.00 0.00 29 1010.0
20260510175704 60 346 1.7 1.7 0.00 0.00 0.00 27 1010.0
20260510175202 61 321 2.6 2.6 0.00 0.00 0.00 29 1010.0
20260510174703 60 246 2.6 2.6 0.00 0.00 0.00 27 1010.0
20260510174202 60 240 1.7 1.7 0.00 0.00 0.00 27 1010.0
20260510173702 60 306 1.7 1.7 0.00 0.00 0.00 26 1010.0
20260510173204 59 69 1.7 1.7 0.00 0.00 0.00 27 1010.0
20260510172702 59 336 2.6 2.6 0.00 0.00 0.00 27 1011.0
20260510172202 59 328 1.7 1.7 0.00 0.00 0.00 30 1011.0
20260510171704 60 307 1.7 1.7 0.00 0.00 0.00 26 1011.0
20260510171204 59 328 0.0 0.0 0.00 0.00 0.00 25 1010.0
20260510170702 59 264 1.7 1.7 0.00 0.00 0.00 25 1010.0
20260510170202 59 268 1.7 1.7 0.00 0.00 0.00 28 1010.0
20260510165702 59 347 1.7 1.7 0.00 0.00 0.00 25 1011.0
20260510165202 59 240 5.2 5.2 0.00 0.00 0.00 26 1011.0
20260510164702 59 253 5.2 6.1 0.00 0.00 0.00 28 1011.0
20260510164202 59 18 1.7 1.7 0.00 0.00 0.00 27 1010.0
20260510163702 59 36 1.7 1.7 0.00 0.00 0.00 27 1010.0
20260510163203 58 0 1.7 1.7 0.00 0.00 0.00 27 1010.0
20260510162702 59 14 1.7 1.7 0.00 0.00 0.00 27 1011.0
20260510162203 59 0 1.7 1.7 0.00 0.00 0.00 28 1011.0
20260510161712 59 330 1.7 1.7 0.00 0.00 0.00 27 1011.0
20260510161203 59 312 1.7 1.7 0.00 0.00 0.00 26 1010.0
20260510160702 60 253 1.7 1.7 0.00 0.00 0.00 27 1010.0
20260510160204 60 76 1.7 1.7 0.00 0.00 0.00 30 1010.0
20260510155702 59 43 1.7 1.7 0.00 0.00 0.00 28 1010.0
20260510155202 58 307 1.7 1.7 0.00 0.00 0.00 31 1010.0
20260510154702 57 226 1.7 1.7 0.00 0.00 0.00 29 1010.0
20260510154203 58 306 1.7 1.7 0.00 0.00 0.00 31 1010.0
20260510153703 57 354 3.5 3.5 0.00 0.00 0.00 32 1010.0
20260510153201 57 296 1.7 1.7 0.00 0.00 0.00 31 1010.0
20260510152702 57 239 5.2 5.2 0.00 0.00 0.00 32 1010.0
20260510152202 57 256 1.7 1.7 0.00 0.00 0.00 33 1010.0
20260510151702 58 270 0.0 0.0 0.00 0.00 0.00 30 1010.0
20260510151203 57 348 1.7 1.7 0.00 0.00 0.00 32 1010.0
20260510150703 58 258 1.7 1.7 0.00 0.00 0.00 33 1010.0
20260510150202 57 276 2.6 2.6 0.00 0.00 0.00 33 1010.0
20260510145702 56 294 0.9 0.9 0.00 0.00 0.00 33 1010.0
20260510145203 56 250 1.7 1.7 0.00 0.00 0.00 33 1010.0
20260510144703 57 249 1.7 1.7 0.00 0.00 0.00 34 1010.0
20260510144202 57 324 1.7 1.7 0.00 0.00 0.00 37 1010.0
20260510143710 56 263 0.9 0.9 0.00 0.00 0.00 35 1010.0
20260510143202 55 354 1.7 1.7 0.00 0.00 0.00 37 1010.0
20260510142703 55 264 0.9 0.9 0.00 0.00 0.00 36 1010.0
20260510142202 55 303 0.0 0.0 0.00 0.00 0.00 38 1010.0
20260510141703 55 222 0.0 0.0 0.00 0.00 0.00 39 1010.0
20260510141202 55 324 1.7 1.7 0.00 0.00 0.00 37 1010.0
20260510140702 55 324 0.0 0.0 0.00 0.00 0.00 37 1010.0
20260510140202 55 228 3.5 4.3 0.00 0.00 0.00 38 1010.0
20260510135702 56 18 1.7 1.7 0.00 0.00 0.00 38 1010.0
20260510135202 55 211 0.0 0.0 0.00 0.00 0.00 39 1010.0
20260510134702 53 204 0.9 0.9 0.00 0.00 0.00 41 1010.0
20260510134203 53 245 2.6 3.5 0.00 0.00 0.00 41 1009.0
20260510133702 54 6 1.7 1.7 0.00 0.00 0.00 40 1009.0
20260510133202 54 312 1.7 1.7 0.00 0.00 0.00 42 1009.0
20260510132702 53 258 1.7 1.7 0.00 0.00 0.00 42 1009.0
20260510132202 52 348 0.0 0.0 0.00 0.00 0.00 43 1009.0
20260510131703 53 245 0.0 0.0 0.00 0.00 0.00 42 1009.0
20260510131204 52 12 0.0 0.0 0.00 0.00 0.00 43 1009.0
20260510130703 53 252 0.9 0.9 0.00 0.00 0.00 44 1009.0
20260510130203 53 60 1.7 1.7 0.00 0.00 0.00 42 1009.0
20260510125702 53 26 0.0 0.0 0.00 0.00 0.00 46 1009.0
20260510125202 51 43 0.0 0.0 0.00 0.00 0.00 44 1009.0
20260510124702 51 84 0.9 0.9 0.00 0.00 0.00 45 1009.0
20260510124202 50 77 1.7 1.7 0.00 0.00 0.00 45 1009.0
20260510123703 50 306 1.7 1.7 0.00 0.00 0.00 47 1009.0
20260510123202 50 12 1.7 1.7 0.00 0.00 0.00 48 1009.0
20260510122702 49 353 1.7 1.7 0.00 0.00 0.00 47 1009.0
20260510122207 51 90 2.6 2.6 0.00 0.00 0.00 49 1009.0
20260510121703 50 354 1.7 1.7 0.00 0.00 0.00 50 1009.0
20260510121204 49 42 0.0 0.0 0.00 0.00 0.00 50 1008.0
20260510120702 49 42 0.0 0.0 0.00 0.00 0.00 51 1008.0
20260510120202 49 339 1.7 1.7 0.00 0.00 0.00 52 1008.0
20260510115703 49 318 0.9 0.9 0.00 0.00 0.00 52 1008.0
20260510115203 48 348 1.7 1.7 0.00 0.00 0.00 54 1008.0
20260510114704 48 42 1.7 1.7 0.00 0.00 0.00 56 1008.0
20260510114202 48 6 0.0 0.0 0.00 0.00 0.00 59 1008.0
20260510113703 48 18 0.9 0.9 0.00 0.00 0.00 56 1008.0
20260510113202 47 18 0.0 0.0 0.00 0.00 0.00 59 1008.0
20260510112702 46 354 0.0 0.0 0.00 0.00 0.00 61 1008.0
20260510112202 45 354 0.0 0.0 0.00 0.00 0.00 66 1008.0
20260510111702 44 33 1.7 1.7 0.00 0.00 0.00 67 1008.0
20260510111202 43 354 0.0 0.0 0.00 0.00 0.00 74 1008.0
20260510110703 42 354 0.0 0.0 0.00 0.00 0.00 75 1008.0
20260510110202 41 354 0.0 0.0 0.00 0.00 0.00 77 1008.0
20260510105702 40 186 0.0 0.0 0.00 0.00 0.00 79 1008.0
20260510105203 40 204 0.0 0.0 0.00 0.00 0.00 81 1008.0
20260510104702 39 186 0.0 0.0 0.00 0.00 0.00 81 1008.0
20260510104202 39 186 0.0 0.0 0.00 0.00 0.00 80 1007.0
20260510103702 40 186 0.0 0.0 0.00 0.00 0.00 80 1007.0
20260510103202 40 186 0.0 0.0 0.00 0.00 0.00 80 1007.0
20260510102702 40 186 0.0 0.0 0.00 0.00 0.00 79 1007.0
20260510102206 40 186 0.0 0.0 0.00 0.00 0.00 78 1007.0
20260510101702 41 186 0.0 0.0 0.00 0.00 0.00 77 1007.0
20260510101202 41 192 0.0 0.0 0.00 0.00 0.00 76 1007.0
20260510100703 41 204 0.0 0.0 0.00 0.00 0.00 74 1007.0
20260510100202 42 300 0.0 0.0 0.00 0.00 0.00 72 1007.0
20260510095703 42 348 0.0 0.0 0.00 0.00 0.00 71 1007.0
20260510095202 43 354 0.0 0.0 0.00 0.00 0.00 70 1007.0
20260510094702 43 354 0.0 0.0 0.00 0.00 0.00 70 1007.0
20260510094203 43 354 0.0 0.0 0.00 0.00 0.00 70 1007.0
20260510093702 43 354 0.0 0.0 0.00 0.00 0.00 69 1007.0
20260510093203 42 354 0.0 0.0 0.00 0.00 0.00 70 1007.0
20260510092702 42 0 0.0 0.0 0.00 0.00 0.00 72 1007.0
20260510092202 43 1 0.0 0.0 0.00 0.00 0.00 71 1007.0
20260510091703 42 1 0.0 0.0 0.00 0.00 0.00 72 1007.0
20260510091203 42 1 0.0 0.0 0.00 0.00 0.00 73 1006.0
20260510090703 42 1 0.0 0.0 0.00 0.00 0.00 75 1006.0
20260510090203 42 1 0.0 0.0 0.00 0.00 0.00 74 1006.0
20260510085702 42 1 0.0 0.0 0.00 0.00 0.00 74 1006.0
20260510085202 43 1 0.0 0.0 0.00 0.00 0.00 73 1006.0
20260510084702 43 1 0.0 0.0 0.00 0.00 0.00 73 1006.0
20260510084202 44 1 0.0 0.0 0.00 0.00 0.00 72 1006.0
20260510083702 44 1 0.0 0.0 0.00 0.00 0.00 70 1006.0
20260510083203 44 1 0.0 0.0 0.00 0.00 0.00 70 1006.0
20260510082702 45 0 0.0 0.0 0.00 0.00 0.00 69 1005.0
20260510082202 45 0 0.0 0.0 0.00 0.00 0.00 67 1005.0
20260510081705 46 0 0.0 0.0 0.00 0.00 0.00 66 1005.0
20260510081203 46 0 0.0 0.0 0.00 0.00 0.00 65 1005.0
20260510080703 47 0 0.0 0.0 0.00 0.00 0.00 63 1005.0
20260510080202 47 0 0.0 0.0 0.00 0.00 0.00 62 1005.0
20260510075702 47 0 0.0 0.0 0.00 0.00 0.00 60 1005.0
20260510075203 48 348 0.0 0.0 0.00 0.00 0.00 59 1005.0
20260510074702 48 348 2.6 2.6 0.00 0.00 0.00 59 1005.0
20260510074202 48 65 1.7 1.7 0.00 0.00 0.00 57 1004.0
20260510073702 48 335 2.6 2.6 0.00 0.00 0.00 59 1004.0
20260510073202 48 340 0.0 0.0 0.00 0.00 0.00 61 1004.0
20260510072703 48 18 0.0 0.0 0.00 0.00 0.00 60 1004.0
20260510072202 48 18 1.7 1.7 0.00 0.00 0.00 63 1004.0
20260510071703 48 6 0.0 0.0 0.00 0.00 0.00 63 1004.0
20260510071202 47 18 0.0 0.0 0.00 0.00 0.00 65 1004.0
20260510070704 47 18 0.0 0.0 0.00 0.00 0.00 65 1004.0
20260510070203 47 324 0.0 0.0 0.00 0.00 0.00 67 1004.0
20260510065702 47 324 0.0 0.0 0.00 0.00 0.00 66 1004.0
20260510065202 46 294 0.0 0.0 0.00 0.00 0.00 69 1004.0
20260510064703 47 294 0.0 0.0 0.00 0.00 0.00 69 1004.0
20260510064202 47 294 0.0 0.0 0.00 0.00 0.00 67 1004.0
20260510063704 48 294 0.0 0.0 0.00 0.00 0.00 66 1004.0
20260510063202 48 294 0.0 0.0 0.00 0.00 0.00 65 1004.0
20260510062702 48 294 0.0 0.0 0.00 0.00 0.00 63 1004.0
20260510062202 49 294 0.0 0.0 0.00 0.00 0.00 62 1004.0
20260510061702 49 294 0.0 0.0 0.00 0.00 0.00 62 1004.0
20260510061203 50 294 0.0 0.0 0.00 0.00 0.00 60 1003.0
20260510060702 50 294 0.0 0.0 0.00 0.00 0.00 58 1003.0
20260510060203 51 294 0.0 0.0 0.00 0.00 0.00 57 1003.0
20260510055702 51 294 0.0 0.0 0.00 0.00 0.00 56 1003.0
20260510055202 52 294 0.0 0.0 0.00 0.00 0.00 55 1003.0
20260510054703 52 342 1.7 1.7 0.00 0.00 0.00 55 1003.0
20260510054202 52 348 0.0 0.0 0.00 0.00 0.00 55 1003.0
20260510053702 53 348 1.7 1.7 0.00 0.00 0.00 54 1003.0
20260510053202 53 348 0.0 0.0 0.00 0.00 0.00 55 1003.0
20260510052702 53 346 0.9 0.9 0.00 0.00 0.00 56 1003.0
20260510052203 53 330 1.7 1.7 0.00 0.00 0.00 56 1003.0
20260510051702 53 100 0.0 0.0 0.00 0.00 0.00 56 1003.0
20260510051203 53 18 0.0 0.0 0.00 0.00 0.00 55 1002.0
20260510050702 54 24 1.7 1.7 0.00 0.00 0.00 54 1002.0
20260510050202 54 336 0.0 0.0 0.00 0.00 0.00 56 1002.0
20260510045702 54 60 0.0 0.0 0.00 0.00 0.00 56 1002.0
20260510045202 55 0 1.7 1.7 0.00 0.00 0.00 57 1002.0
20260510044702 55 36 1.7 1.7 0.00 0.00 0.00 57 1002.0
20260510044203 55 24 1.7 1.7 0.00 0.00 0.00 57 1002.0
20260510043702 55 48 1.7 1.7 0.00 0.00 0.00 56 1002.0
20260510043203 55 72 1.7 1.7 0.00 0.00 0.00 57 1002.0
20260510042702 54 60 0.0 0.0 0.00 0.00 0.00 55 1002.0
20260510042202 54 324 0.0 0.0 0.00 0.00 0.00 56 1002.0
20260510041702 55 324 0.0 0.0 0.00 0.00 0.00 54 1002.0
20260510041203 55 324 0.0 0.0 0.00 0.00 0.00 53 1001.0
20260510040704 56 324 0.0 0.0 0.00 0.00 0.00 52 1001.0
20260510040203 56 324 0.0 0.0 0.00 0.00 0.00 51 1001.0
20260510035703 57 324 0.0 0.0 0.00 0.00 0.00 50 1001.0
20260510035204 57 30 0.0 0.0 0.00 0.00 0.00 50 1001.0
20260510034702 57 30 1.7 1.7 0.00 0.00 0.00 49 1001.0
20260510034202 58 30 1.7 1.7 0.00 0.00 0.00 48 1001.0
20260510033704 58 341 0.0 0.0 0.00 0.00 0.00 47 1001.0
20260510033203 58 252 0.9 0.9 0.00 0.00 0.00 48 1001.0
20260510032703 59 252 0.0 0.0 0.00 0.00 0.00 48 1001.0
20260510032202 59 12 1.7 1.7 0.00 0.00 0.00 47 1001.0
20260510031702 59 348 0.0 0.0 0.00 0.00 0.00 46 1001.0
20260510031203 59 6 1.7 1.7 0.00 0.00 0.00 46 1001.0
20260510030704 59 18 0.9 0.9 0.00 0.00 0.00 45 1001.0
20260510030203 59 294 1.7 1.7 0.00 0.00 0.00 44 1001.0
20260510025702 60 328 0.0 0.0 0.00 0.00 0.00 46 1000.0
20260510025202 60 336 0.0 0.0 0.00 0.00 0.00 44 1000.0
20260510024702 60 320 1.7 1.7 0.00 0.00 0.00 43 1000.0
20260510024202 61 306 2.6 2.6 0.00 0.00 0.00 43 1000.0
20260510023702 61 223 4.3 4.3 0.00 0.00 0.00 42 1000.0
20260510023203 61 309 1.7 1.7 0.00 0.00 0.00 43 1000.0
20260510022705 62 234 1.7 1.7 0.00 0.00 0.00 45 999.0
20260510022202 62 318 1.7 1.7 0.00 0.00 0.00 44 999.0
20260510021702 62 348 2.6 2.6 0.00 0.00 0.00 47 999.0
20260510021203 62 330 1.7 1.7 0.00 0.00 0.00 48 999.0
20260510020702 62 306 0.0 0.0 0.00 0.00 0.00 47 999.0
20260510020202 62 300 0.0 0.0 0.00 0.00 0.00 48 999.0
20260510015702 62 294 0.0 0.0 0.00 0.00 0.00 48 998.0
20260510015202 62 324 0.0 0.0 0.00 0.00 0.00 48 998.0
20260510014703 61 330 1.7 1.7 0.00 0.00 0.00 49 998.0
20260510014203 60 300 1.7 1.7 0.00 0.00 0.00 50 998.0
20260510013702 59 300 0.0 0.0 0.00 0.00 0.00 53 998.0
20260510013202 59 300 0.0 0.0 0.00 0.00 0.00 55 998.0
20260510012702 60 300 0.0 0.0 0.00 0.00 0.00 53 998.0
20260510012203 60 300 0.0 0.0 0.00 0.00 0.00 51 998.0
20260510011702 60 300 0.0 0.0 0.00 0.00 0.00 50 998.0
20260510011203 61 300 0.0 0.0 0.00 0.00 0.00 49 997.0
20260510010702 61 300 0.0 0.0 0.00 0.00 0.00 48 997.0
20260510010203 62 300 0.0 0.0 0.00 0.00 0.00 47 997.0
20260510005702 62 300 0.0 0.0 0.00 0.00 0.00 47 997.0
20260510005203 63 294 0.0 0.0 0.00 0.00 0.00 44 997.0
20260510004702 64 258 0.0 0.0 0.00 0.00 0.00 44 997.0
20260510004202 64 258 1.7 1.7 0.00 0.00 0.00 43 997.0
20260510003702 64 312 0.0 0.0 0.00 0.00 0.00 43 997.0
20260510003203 65 308 0.0 0.0 0.00 0.00 0.00 42 997.0
20260510002702 65 330 1.7 1.7 0.00 0.00 0.00 40 997.0
20260510001712 65 240 0.0 0.0 0.00 0.00 0.00 41 997.0
20260510001203 66 240 1.7 1.7 0.00 0.00 0.00 39 997.0
20260510000703 66 296 1.7 1.7 0.00 0.00 0.00 39 997.0
20260510000204 67 238 1.7 1.7 0.00 0.00 0.00 38 997.0
20260509235702 67 282 1.7 1.7 0.00 0.00 0.00 37 996.0
20260509235202 67 251 1.7 1.7 0.00 0.00 0.00 38 996.0
20260509234703 67 228 2.6 3.5 0.00 0.00 0.00 37 996.0
20260509234202 67 246 2.6 2.6 0.00 0.00 0.00 37 997.0
20260509233702 67 282 2.6 2.6 0.00 0.00 0.00 36 997.0
20260509233202 67 234 4.3 5.2 0.00 0.00 0.00 37 997.0
20260509232703 68 249 6.1 6.1 0.00 0.00 0.00 37 996.0
20260509232202 68 251 1.7 1.7 0.00 0.00 0.00 37 996.0
20260509231703 68 300 1.7 1.7 0.00 0.00 0.00 35 996.0
20260509231202 68 182 1.7 1.7 0.00 0.00 0.00 35 996.0
20260509230702 68 110 2.6 2.6 0.00 0.00 0.00 35 996.0
20260509230203 69 240 3.5 3.5 0.00 0.00 0.00 35 996.0
20260509225703 69 226 2.6 2.6 0.00 0.00 0.00 34 996.0
20260509225202 69 265 4.3 5.2 0.00 0.00 0.00 34 996.0
20260509224702 69 307 1.7 1.7 0.00 0.00 0.00 34 996.0
20260509224202 69 14 2.6 2.6 0.00 0.00 0.00 34 996.0
20260509223703 69 256 2.6 2.6 0.00 0.00 0.00 35 996.0
20260509223203 70 264 2.6 2.6 0.00 0.00 0.00 34 996.0
20260509222702 69 186 3.5 4.3 0.00 0.00 0.00 34 995.0
20260509222202 69 269 2.6 2.6 0.00 0.00 0.00 34 995.0
20260509221702 70 346 1.7 1.7 0.00 0.00 0.00 34 995.0
20260509221202 70 228 5.2 6.1 0.00 0.00 0.00 31 995.0
20260509220703 70 208 5.2 6.1 0.00 0.00 0.00 32 995.0
20260509220204 70 157 3.5 4.3 0.00 0.00 0.00 34 995.0
20260509215702 71 295 1.7 1.7 0.00 0.00 0.00 34 995.0
20260509215202 70 234 2.6 2.6 0.00 0.00 0.00 35 995.0
20260509214702 70 42 1.7 1.7 0.00 0.00 0.00 37 995.0
20260509214202 70 246 2.6 3.5 0.00 0.00 0.00 36 995.0
20260509213703 70 256 7.8 8.7 0.00 0.00 0.00 37 995.0
20260509213204 70 256 3.5 3.5 0.00 0.00 0.00 37 995.0
20260509212704 70 235 3.5 4.3 0.00 0.00 0.00 39 995.0
20260509212202 70 307 0.9 0.9 0.00 0.00 0.00 39 995.0
20260509211702 69 228 2.6 3.5 0.00 0.00 0.00 39 995.0
20260509211202 69 359 1.7 1.7 0.00 0.00 0.00 39 995.0
20260509210702 69 259 2.6 2.6 0.00 0.00 0.00 41 995.0
20260509210202 69 247 0.0 0.0 0.00 0.00 0.00 43 995.0
20260509205702 69 240 2.6 2.6 0.00 0.00 0.00 43 995.0
20260509205202 69 268 3.5 3.5 0.00 0.00 0.00 42 995.0
20260509204703 69 342 2.6 2.6 0.00 0.00 0.00 45 995.0